[[{"header":{"parameterUnit":"m.s-1","parameterCategory":2,"la1":30.2991,"la2":30.254,"lo1":-89.0895,"lo2":-89.0444,"dy":0.0017,"dx":0.0017,"nx":28,"ny":28,"refTime":"2026-01-29T03:00:00:Z","depth":"0","parameterNumber":2,"parameterNumberName":"U-component_of_CURRENTS"},"data":[0,0,0,0,0,0,0,0,0,0,0,0,0,0,0,0,0,0,0,0,0,0,0,0,0,0,0,0,0,0,0,0,0,0,0,0,0,0,0,0,0,0,0,0,0,0,0,0,0,0,0,0,0,0,0,0,0,0,-0.2889,-0.289,0,-0.2926,-0.2926,-0.2927,-0.2905,-0.2904,-0.2903,-0.2902,-0.2868,-0.2868,-0.2868,0,0,0,0,0,0,0,0,0,0,0,0,0,-0.2814,-0.2815,-0.2889,-0.289,-0.2891,-0.2926,-0.2926,-0.2927,-0.2905,-0.2904,-0.2903,-0.2902,-0.2868,-0.2868,-0.2868,0,0,0,0,0,0,0,0,0,0,0,0,0,-0.2846,-0.2816,-0.2889,-0.2886,-0.2886,-0.2926,-0.2926,-0.2927,-0.2905,-0.2904,-0.2903,-0.2902,-0.2868,-0.2868,-0.2868,-0.2892,0,0,-0.2867,-0.2867,0,0,0,0,0,0,0,0,-0.2844,-0.2849,-0.2886,-0.2886,-0.2887,-0.2912,-0.2887,-0.2912,-0.2906,-0.2896,-0.2902,-0.2901,-0.2879,-0.2878,-0.2885,-0.289,-0.2889,-0.2867,-0.2867,-0.2867,-0.2867,0,0,0,0,0,0,0,-0.2842,-0.2847,-0.2902,-0.2887,-0.2887,-0.2887,-0.289,-0.2892,-0.2891,-0.2896,-0.2895,-0.2904,-0.2878,-0.2885,-0.2884,-0.2888,-0.2867,-0.2867,-0.2867,-0.2867,-0.2882,-0.2882,0,0,0,0,0,0,-0.2843,-0.2845,-0.29,-0.2903,-0.2864,-0.289,-0.2893,-0.2903,-0.2892,-0.289,-0.2905,-0.2903,-0.2886,-0.2884,-0.2882,-0.2891,-0.2867,-0.2867,-0.2867,-0.2881,-0.2882,-0.2882,0,0,0,0,0,0,-0.2842,-0.2848,-0.2899,-0.2876,-0.2883,-0.2893,-0.2904,-0.2904,-0.2907,-0.29,-0.2896,-0.2906,-0.2885,-0.2883,-0.2885,-0.289,-0.2867,-0.2867,-0.2881,-0.2881,-0.2882,-0.2921,0,0,0,0,0,0,-0.2839,-0.2847,-0.2849,-0.2877,-0.2884,-0.2922,-0.2906,-0.2906,-0.2915,-0.2912,-0.29,-0.2896,-0.2884,-0.2885,-0.2885,-0.289,-0.2866,-0.288,-0.2881,-0.2882,-0.2919,-0.2923,-0.2926,0,0,0,0,0,-0.2836,-0.2847,-0.2849,-0.2855,-0.2889,-0.2923,-0.2927,-0.2927,-0.2916,-0.2923,-0.2915,-0.2896,-0.289,-0.2886,-0.2885,-0.289,-0.2879,-0.2881,-0.2882,-0.2917,-0.2922,-0.2926,0,0,0,0,0,0,-0.2814,-0.2847,-0.2849,-0.2868,-0.2893,-0.292,-0.2924,-0.293,-0.2932,-0.2923,-0.2909,-0.2906,-0.291,-0.2897,-0.2893,-0.2896,-0.2879,-0.288,-0.2907,-0.2911,-0.2915,-0.291,-0.2866,0,0,0,0,0,-0.2812,-0.2824,-0.2861,-0.2872,-0.2886,-0.2906,-0.2917,-0.2924,-0.2934,-0.2933,-0.2926,-0.2917,-0.2917,-0.2911,-0.291,-0.2915,-0.2889,-0.2915,-0.2919,-0.2922,-0.2917,-0.2894,-0.2895,-0.2886,-0.2886,-0.2886,0,0,-0.2805,-0.2825,-0.283,-0.2868,-0.2883,-0.2912,-0.2908,-0.293,-0.2948,-0.2929,-0.2938,-0.2934,-0.2923,-0.293,-0.2929,-0.2917,-0.291,-0.2924,-0.2927,-0.292,-0.2895,-0.2896,-0.2896,-0.2887,-0.2887,-0.2887,0,0,-0.2804,-0.2817,-0.2831,-0.2858,-0.2891,-0.291,-0.2918,-0.2949,-0.2952,-0.2972,-0.296,-0.2957,-0.2959,-0.2952,-0.2948,-0.2971,-0.2935,-0.297,-0.2979,-0.2957,-0.2957,-0.2957,-0.2919,-0.2915,-0.2966,-0.2966,-0.2966,0,-0.2794,-0.2818,-0.284,-0.2869,-0.2888,-0.2911,-0.2937,-0.2955,-0.298,-0.2982,-0.2975,-0.2976,-0.2968,-0.2971,-0.2979,-0.2978,-0.2954,-0.2965,-0.2961,-0.296,-0.296,-0.292,-0.2915,-0.2968,-0.2968,-0.2968,-0.2967,0,-0.2809,-0.2832,-0.2845,-0.2885,-0.2911,-0.2936,-0.2973,-0.299,-0.2996,-0.3008,-0.3013,-0.3007,-0.3,-0.3002,-0.2999,-0.2994,-0.2975,-0.2973,-0.2949,-0.2963,-0.292,-0.2915,-0.2971,-0.297,-0.297,-0.2969,0,0,-0.277,-0.2841,-0.2842,-0.2865,-0.2921,-0.2943,-0.2978,-0.301,-0.3022,-0.3034,-0.3038,-0.3043,-0.3031,-0.3026,-0.3019,-0.3002,-0.298,-0.2987,-0.2985,-0.2947,-0.2917,-0.2827,-0.2811,-0.2979,-0.2978,-0.2978,-0.2887,0,-0.2769,-0.2819,-0.2857,-0.2898,-0.2926,-0.2965,-0.2997,-0.3028,-0.3043,-0.3055,-0.3047,-0.305,-0.3043,-0.3038,-0.3023,-0.3002,-0.2968,-0.3003,-0.291,-0.2907,-0.2824,-0.2803,-0.2693,-0.2596,-0.2881,-0.288,-0.2879,0,-0.2762,-0.2799,-0.2839,-0.2905,-0.292,-0.2948,-0.2988,-0.3022,-0.3052,-0.3062,-0.3062,-0.306,-0.305,-0.3037,-0.2985,-0.3009,-0.2959,-0.2932,-0.2928,-0.2824,-0.2806,-0.263,-0.2575,-0.255,-0.287,-0.2871,-0.2872,0,-0.2705,-0.278,-0.2807,-0.2831,-0.2911,-0.2928,-0.2965,-0.301,-0.3033,-0.3059,-0.3067,-0.3059,-0.3048,-0.3004,-0.2952,-0.2968,-0.2879,-0.2893,-0.2754,-0.2747,-0.2623,-0.2605,-0.2528,-0.2827,-0.2827,-0.2827,-0.2828,0,-0.268,-0.2698,-0.2782,-0.2795,-0.2823,-0.2894,-0.2918,-0.2958,-0.3007,-0.3032,-0.3057,-0.3057,-0.304,-0.2995,-0.2944,-0.2822,-0.2864,-0.2739,-0.2713,-0.2632,-0.2617,-0.2565,-0.2595,-0.2824,-0.2825,-0.2825,-0.2826,0,-0.2601,-0.2661,-0.2693,-0.2773,-0.2794,-0.2809,-0.2886,-0.2915,-0.2969,-0.3,-0.3009,-0.3042,-0.2983,-0.2935,-0.2857,-0.2794,-0.2642,-0.2639,-0.2537,-0.25,-0.2348,-0.2384,-0.2274,-0.2208,-0.2474,-0.2471,-0.2468,0,-0.256,-0.257,-0.2648,-0.267,-0.2701,-0.2743,-0.2782,-0.2869,-0.2914,-0.2983,-0.2998,-0.2964,-0.2895,-0.2743,-0.2639,-0.2496,-0.2507,-0.2326,-0.2333,-0.2303,-0.2326,-0.2363,-0.2319,-0.2184,-0.218,-0.2176,-0.2173,0,-0.2466,-0.2495,-0.2518,-0.2591,-0.2631,-0.2675,-0.2745,-0.277,-0.2882,-0.2873,-0.2865,-0.2804,-0.2687,-0.2491,-0.2336,-0.2253,-0.227,-0.2243,-0.224,-0.2105,-0.2111,-0.2047,-0.2286,-0.214,-0.2143,-0.2146,-0.2147,-0.2149,-0.2372,-0.2373,-0.2434,-0.2499,-0.255,-0.2607,-0.2517,-0.2625,-0.2622,-0.255,-0.2681,-0.2499,-0.24,-0.2149,-0.2063,-0.1911,-0.1999,-0.1857,-0.1905,-0.1947,-0.1873,-0.2027,-0.1841,-0.1843,-0.1844,-0.1845,-0.1847,0,-0.226,-0.2301,-0.2356,-0.2416,-0.241,-0.2468,-0.2476,-0.2317,-0.2204,-0.2236,-0.2149,-0.2075,-0.1912,-0.1832,-0.1709,-0.1611,-0.1588,-0.1585,-0.1626,-0.1597,-0.1736,-0.1713,-0.1456,-0.1456,-0.1456,-0.1456,-0.1456,-0.1456,-0.2203,-0.2231,-0.2298,-0.2283,-0.2257,-0.2085,-0.1978,-0.1794,-0.1691,-0.1489,-0.1424,-0.1386,-0.1524,-0.1696,-0.1581,-0.1493,-0.1471,-0.1416,-0.1458,-0.1587,-0.1617,-0.1647,-0.163,-0.136,-0.136,-0.1251,-0.1251,-0.125]},{"header":{"parameterUnit":"m.s-1","parameterCategory":2,"la1":30.2991,"la2":30.254,"lo1":-89.0895,"lo2":-89.0444,"dy":0.0017,"dx":0.0017,"nx":28,"ny":28,"refTime":"2026-01-29T03:00:00:Z","depth":"0","parameterNumber":3,"parameterNumberName":"V-component_of_CURRENTS"},"data":[0,0,0,0,0,0,0,0,0,0,0,0,0,0,0,0,0,0,0,0,0,0,0,0,0,0,0,0,0,0,0,0,0,0,0,0,0,0,0,0,0,0,0,0,0,0,0,0,0,0,0,0,0,0,0,0,0,0,-0.034,-0.034,0,-0.0266,-0.0265,-0.0264,-0.0203,-0.0203,-0.0202,-0.0202,-0.0071,-0.0068,-0.0065,0,0,0,0,0,0,0,0,0,0,0,0,0,-0.038,-0.038,-0.034,-0.0339,-0.0339,-0.0266,-0.0265,-0.0263,-0.0203,-0.0203,-0.0202,-0.0202,-0.0072,-0.0069,-0.0065,0,0,0,0,0,0,0,0,0,0,0,0,0,-0.0338,-0.038,-0.034,-0.0301,-0.0297,-0.0266,-0.0265,-0.0263,-0.0203,-0.0203,-0.0202,-0.0201,-0.0074,-0.0069,-0.0065,-0.005,0,0,-0.0051,-0.0049,0,0,0,0,0,0,0,0,-0.0341,-0.0337,-0.0308,-0.0304,-0.0299,-0.0245,-0.0231,-0.019,-0.0204,-0.0237,-0.0202,-0.0201,-0.0126,-0.0117,-0.0103,-0.0044,-0.0038,-0.005,-0.0047,-0.0046,-0.0044,0,0,0,0,0,0,0,-0.0344,-0.0339,-0.0309,-0.0307,-0.0302,-0.027,-0.0264,-0.0223,-0.0184,-0.0234,-0.023,-0.0225,-0.0123,-0.0107,-0.0099,-0.0036,-0.005,-0.0046,-0.0043,-0.0042,0.0062,0.0062,0,0,0,0,0,0,-0.036,-0.0342,-0.0311,-0.0307,-0.0321,-0.0271,-0.0263,-0.0261,-0.0185,-0.0174,-0.0226,-0.0222,-0.0115,-0.0104,-0.0094,-0.0065,-0.0046,-0.0041,-0.0039,0.0062,0.0062,0.0062,0,0,0,0,0,0,-0.0361,-0.0358,-0.0314,-0.0324,-0.0316,-0.0271,-0.0269,-0.026,-0.0244,-0.018,-0.0167,-0.0219,-0.0114,-0.0101,-0.0059,-0.006,-0.0039,-0.0035,0.0062,0.0062,0.0062,-0.0012,0,0,0,0,0,0,-0.0363,-0.0359,-0.0364,-0.0325,-0.0317,-0.0304,-0.027,-0.0259,-0.0243,-0.0238,-0.017,-0.0157,-0.0113,-0.0066,-0.0054,-0.0053,-0.0031,0.0062,0.0062,0.0062,-0.0009,-0.0014,-0.0019,0,0,0,0,0,-0.0365,-0.0379,-0.0365,-0.0361,-0.0325,-0.0305,-0.0298,-0.0261,-0.0244,-0.0243,-0.0194,-0.0159,-0.0057,-0.0062,-0.0048,-0.0046,0.0062,0.0062,0.0062,-0.0007,-0.0013,-0.0018,0,0,0,0,0,0,-0.0398,-0.0373,-0.0357,-0.0362,-0.0338,-0.0296,-0.0293,-0.0268,-0.0229,-0.0223,-0.0159,-0.0143,-0.0108,-0.0067,-0.0075,-0.0016,0.0008,0.0011,-0.0049,-0.0054,-0.0059,-0.0072,-0.0028,0,0,0,0,0,-0.0409,-0.0412,-0.038,-0.0383,-0.0376,-0.0335,-0.0323,-0.03,-0.0262,-0.0244,-0.0196,-0.0143,-0.0098,-0.007,-0.0027,0.0005,0.0055,0.0017,0.0012,0.0008,0.0007,0.0077,0.0078,0.0062,0.0062,0.0062,0,0,-0.0422,-0.0409,-0.0409,-0.0391,-0.0368,-0.0368,-0.0326,-0.0315,-0.0307,-0.0236,-0.021,-0.0161,-0.0094,-0.0059,-0.0039,-0.0024,0.0039,0.0008,0.0004,0.0005,0.0077,0.0078,0.008,0.0062,0.0062,0.0062,0,0,-0.0458,-0.0439,-0.0457,-0.0443,-0.0422,-0.0395,-0.0397,-0.0358,-0.0333,-0.0305,-0.025,-0.0201,-0.0138,-0.0086,-0.0052,-0.0055,0.0008,-0.0043,-0.0071,-0.0004,-0.0002,0.0001,0.0065,0.0073,-0.004,-0.0041,-0.0041,0,-0.0475,-0.0492,-0.0458,-0.0473,-0.0466,-0.0414,-0.0429,-0.0398,-0.0349,-0.0324,-0.0308,-0.0201,-0.0149,-0.0089,-0.0091,-0.0065,-0.0018,-0.0058,-0.001,-0.0007,-0.0003,0.0062,0.0073,-0.0044,-0.0044,-0.0043,-0.0043,0,-0.0525,-0.0536,-0.0545,-0.0544,-0.053,-0.0535,-0.0492,-0.0471,-0.0434,-0.0392,-0.0332,-0.0257,-0.0191,-0.0167,-0.013,-0.0078,-0.0051,-0.0029,-0.0,-0.0006,0.0063,0.0075,-0.0049,-0.0048,-0.0047,-0.0046,0,0,-0.0569,-0.058,-0.0583,-0.0595,-0.0569,-0.0565,-0.0548,-0.0511,-0.049,-0.0431,-0.0393,-0.0313,-0.0263,-0.0221,-0.0161,-0.0101,-0.0038,-0.0062,-0.0057,-0.0006,0.0111,0.0172,0.0192,-0.0009,-0.0008,-0.0006,0.0148,0,-0.0618,-0.0669,-0.0651,-0.0681,-0.0701,-0.0647,-0.0634,-0.0588,-0.0531,-0.048,-0.0386,-0.0329,-0.0285,-0.0251,-0.0186,-0.0072,-0.0009,-0.0081,0.0116,0.0122,0.0171,0.0207,0.0246,0.0391,0.0161,0.0163,0.0164,0,-0.0675,-0.07,-0.075,-0.0752,-0.0753,-0.0756,-0.0714,-0.0694,-0.06,-0.0553,-0.0473,-0.0395,-0.0293,-0.0261,-0.0073,-0.0122,-0.0018,0.0071,0.0079,0.0171,0.0206,0.0362,0.0422,0.0564,0.0184,0.0182,0.0181,0,-0.0732,-0.0765,-0.0807,-0.0811,-0.0805,-0.0805,-0.0789,-0.0717,-0.0689,-0.0593,-0.0552,-0.0425,-0.0344,-0.0211,-0.0026,-0.005,0.0191,0.0184,0.034,0.0345,0.0436,0.0447,0.0653,0.0315,0.0314,0.0314,0.0313,0,-0.0795,-0.0826,-0.084,-0.0866,-0.09,-0.0866,-0.0868,-0.0827,-0.0754,-0.0696,-0.0596,-0.0509,-0.0326,-0.0164,-0.0024,0.0212,0.0199,0.035,0.0396,0.0412,0.0418,0.0591,0.0636,0.032,0.0318,0.0317,0.0316,0,-0.0856,-0.0867,-0.0916,-0.093,-0.0935,-0.0957,-0.0936,-0.0923,-0.0848,-0.0766,-0.0736,-0.0556,-0.0331,-0.0136,0.0119,0.0235,0.0541,0.052,0.0526,0.0571,0.0816,0.0853,0.111,0.1203,0.0701,0.0704,0.0706,0,-0.0892,-0.0928,-0.0973,-0.1003,-0.1014,-0.1035,-0.104,-0.0982,-0.0941,-0.077,-0.072,-0.05,-0.0297,0.0083,0.0325,0.0593,0.069,0.0773,0.0732,0.0858,0.0934,0.0954,0.1014,0.0826,0.0829,0.0831,0.0833,0,-0.0954,-0.097,-0.1009,-0.1073,-0.11,-0.1104,-0.1089,-0.1039,-0.0921,-0.081,-0.059,-0.042,-0.0094,0.0246,0.0567,0.072,0.0883,0.083,0.0971,0.1064,0.1092,0.1194,0.0688,0.0855,0.0852,0.0851,0.085,0.0849,-0.0986,-0.1033,-0.1078,-0.1109,-0.113,-0.1068,-0.0963,-0.0894,-0.0734,-0.0401,-0.0413,-0.0041,0.0189,0.0656,0.0819,0.1143,0.1092,0.1235,0.1275,0.1289,0.1369,0.0908,0.1115,0.1114,0.1114,0.1113,0.1113,0,-0.1012,-0.1042,-0.1101,-0.1071,-0.0994,-0.1028,-0.0902,-0.0702,-0.0379,-0.0171,0.0084,0.0469,0.0798,0.104,0.1377,0.1566,0.1594,0.1663,0.1699,0.1742,0.1359,0.1354,0.1609,0.1609,0.1609,0.1609,0.1609,0.1609,-0.1029,-0.1069,-0.1073,-0.09,-0.0833,-0.0633,-0.0478,-0.0208,0.0012,0.0518,0.0839,0.0991,0.119,0.1601,0.1918,0.1953,0.2116,0.2112,0.2198,0.1919,0.1881,0.1845,0.1853,0.2209,0.221,0.257,0.2573,0.2576]}],[{"header":{"parameterUnit":"m.s-1","parameterCategory":2,"la1":30.2991,"la2":30.254,"lo1":-89.0895,"lo2":-89.0444,"dy":0.0017,"dx":0.0017,"nx":28,"ny":28,"refTime":"2026-01-29T03:00:00:Z","depth":"2","parameterNumber":2,"parameterNumberName":"U-component_of_CURRENTS"},"data":[0,0,0,0,0,0,0,0,0,0,0,0,0,0,0,0,0,0,0,0,0,0,0,0,0,0,0,0,0,0,0,0,0,0,0,0,0,0,0,0,0,0,0,0,0,0,0,0,0,0,0,0,0,0,0,0,0,0,-0.253,-0.2531,0,-0.2559,-0.2559,-0.2559,-0.2543,-0.2542,-0.2541,-0.2541,-0.2524,-0.2524,-0.2525,0,0,0,0,0,0,0,0,0,0,0,0,0,-0.2468,-0.2469,-0.253,-0.2531,-0.2531,-0.2559,-0.2559,-0.2559,-0.2543,-0.2542,-0.2541,-0.2541,-0.2524,-0.2524,-0.2525,0,0,0,0,0,0,0,0,0,0,0,0,0,-0.2493,-0.2469,-0.253,-0.2528,-0.2528,-0.2559,-0.2559,-0.2559,-0.2543,-0.2542,-0.2541,-0.254,-0.2524,-0.2524,-0.2525,-0.2545,0,0,-0.2525,-0.2525,0,0,0,0,0,0,0,0,-0.2492,-0.2496,-0.2528,-0.2528,-0.2528,-0.2548,-0.2531,-0.2553,-0.2543,-0.2535,-0.2541,-0.254,-0.253,-0.253,-0.2535,-0.2544,-0.2543,-0.2525,-0.2525,-0.2525,-0.2526,0,0,0,0,0,0,0,-0.249,-0.2494,-0.2539,-0.2528,-0.2529,-0.2528,-0.253,-0.2535,-0.2535,-0.2536,-0.2535,-0.2542,-0.253,-0.2535,-0.2534,-0.2543,-0.2525,-0.2525,-0.2526,-0.2526,-0.2561,-0.2562,0,0,0,0,0,0,-0.2492,-0.2493,-0.2539,-0.2541,-0.251,-0.253,-0.2532,-0.2541,-0.2536,-0.2535,-0.2543,-0.2541,-0.2535,-0.2534,-0.2534,-0.2556,-0.2525,-0.2526,-0.2526,-0.256,-0.2561,-0.2562,0,0,0,0,0,0,-0.249,-0.2496,-0.2538,-0.2519,-0.2524,-0.2532,-0.2542,-0.2542,-0.2548,-0.2542,-0.254,-0.2548,-0.2534,-0.2533,-0.2542,-0.2555,-0.2526,-0.2526,-0.2559,-0.256,-0.2562,-0.26,0,0,0,0,0,0,-0.2489,-0.2495,-0.2499,-0.2519,-0.2525,-0.2559,-0.2543,-0.2544,-0.2554,-0.2552,-0.2546,-0.2544,-0.2533,-0.2542,-0.2542,-0.2554,-0.2526,-0.2558,-0.256,-0.2561,-0.2598,-0.2603,-0.2607,0,0,0,0,0,-0.2486,-0.2498,-0.2499,-0.2505,-0.2532,-0.256,-0.2563,-0.2564,-0.2556,-0.2564,-0.2559,-0.2544,-0.2552,-0.2543,-0.2543,-0.2556,-0.2557,-0.2559,-0.2561,-0.2596,-0.2602,-0.2606,0,0,0,0,0,0,-0.2472,-0.2499,-0.25,-0.2519,-0.2539,-0.2558,-0.2565,-0.257,-0.2574,-0.2569,-0.2558,-0.2556,-0.2568,-0.2559,-0.255,-0.2571,-0.2551,-0.2553,-0.2578,-0.2583,-0.2587,-0.2584,-0.2526,0,0,0,0,0,-0.2473,-0.2486,-0.2514,-0.2526,-0.2538,-0.2553,-0.2563,-0.2569,-0.2578,-0.2579,-0.2577,-0.2574,-0.2578,-0.2577,-0.258,-0.2593,-0.2571,-0.26,-0.2605,-0.2609,-0.2607,-0.2592,-0.2594,-0.2568,-0.2568,-0.2568,0,0,-0.247,-0.2486,-0.2493,-0.2524,-0.2536,-0.2563,-0.2556,-0.2578,-0.2596,-0.2577,-0.2594,-0.2592,-0.2586,-0.2601,-0.2605,-0.2592,-0.2603,-0.2611,-0.2614,-0.261,-0.2594,-0.2596,-0.2598,-0.2569,-0.2569,-0.2569,0,0,-0.2475,-0.2487,-0.2502,-0.2525,-0.2553,-0.2568,-0.2577,-0.2603,-0.2609,-0.2632,-0.2621,-0.2625,-0.2635,-0.2631,-0.2631,-0.2661,-0.263,-0.2664,-0.2681,-0.2667,-0.2668,-0.267,-0.2637,-0.2635,-0.2663,-0.2663,-0.2663,0,-0.2471,-0.2493,-0.2511,-0.2537,-0.2554,-0.2573,-0.2597,-0.2616,-0.264,-0.2645,-0.264,-0.2652,-0.2649,-0.2659,-0.2671,-0.267,-0.2651,-0.2661,-0.2671,-0.2672,-0.2673,-0.2639,-0.2636,-0.2665,-0.2665,-0.2665,-0.2664,0,-0.2489,-0.251,-0.2523,-0.2559,-0.2583,-0.2607,-0.264,-0.2659,-0.2668,-0.2681,-0.2696,-0.2694,-0.2695,-0.2701,-0.2696,-0.2704,-0.2684,-0.2681,-0.2656,-0.2678,-0.2641,-0.2637,-0.2668,-0.2667,-0.2667,-0.2666,0,0,-0.2462,-0.2523,-0.2526,-0.2545,-0.2596,-0.2616,-0.2653,-0.2686,-0.2702,-0.272,-0.2732,-0.2745,-0.2738,-0.2736,-0.2731,-0.2722,-0.271,-0.2707,-0.2705,-0.267,-0.2665,-0.2575,-0.2562,-0.271,-0.271,-0.271,-0.2634,0,-0.2466,-0.2511,-0.2543,-0.2583,-0.2608,-0.2644,-0.2677,-0.2709,-0.2729,-0.2749,-0.2748,-0.2759,-0.2754,-0.2753,-0.2747,-0.2726,-0.2704,-0.273,-0.2652,-0.265,-0.2564,-0.2556,-0.2379,-0.229,-0.263,-0.263,-0.2629,0,-0.2464,-0.2496,-0.2535,-0.2592,-0.2606,-0.2635,-0.2679,-0.2713,-0.2751,-0.2765,-0.2776,-0.2778,-0.2778,-0.2766,-0.2729,-0.2746,-0.2706,-0.2683,-0.2679,-0.2578,-0.2553,-0.2326,-0.2271,-0.2623,-0.2623,-0.2624,-0.2624,0,-0.2418,-0.2485,-0.251,-0.2532,-0.2604,-0.2624,-0.266,-0.2708,-0.2731,-0.2769,-0.2781,-0.2786,-0.2778,-0.2749,-0.2705,-0.2718,-0.2649,-0.2656,-0.2531,-0.2524,-0.2347,-0.2324,-0.2613,-0.2613,-0.2613,-0.2613,-0.2613,0,-0.2398,-0.2416,-0.2491,-0.2503,-0.2533,-0.2597,-0.2627,-0.2667,-0.2717,-0.2731,-0.2777,-0.2772,-0.2775,-0.274,-0.2702,-0.2595,-0.2639,-0.2522,-0.2497,-0.2355,-0.2335,-0.2608,-0.2609,-0.261,-0.2611,-0.2612,-0.2612,0,-0.2331,-0.2384,-0.2415,-0.2489,-0.2509,-0.2527,-0.2598,-0.2617,-0.2683,-0.27,-0.271,-0.2751,-0.2705,-0.2684,-0.2625,-0.2568,-0.2493,-0.244,-0.2266,-0.2221,-0.2379,-0.2383,-0.2295,-0.2291,-0.2288,-0.2285,-0.2283,0,-0.2297,-0.2307,-0.238,-0.2391,-0.242,-0.2462,-0.2485,-0.2575,-0.2596,-0.2667,-0.2659,-0.2653,-0.2594,-0.2485,-0.2399,-0.2292,-0.2383,-0.2072,-0.2064,-0.2361,-0.2346,-0.2355,-0.2363,-0.1842,-0.1836,-0.1831,-0.1828,0,-0.2217,-0.2245,-0.2267,-0.2294,-0.232,-0.2349,-0.2393,-0.2406,-0.2498,-0.251,-0.2496,-0.2458,-0.238,-0.2184,-0.2077,-0.2003,-0.2082,-0.1972,-0.2311,-0.1959,-0.193,-0.1917,-0.194,-0.1786,-0.179,-0.1793,-0.1796,-0.1797,-0.2139,-0.2133,-0.2159,-0.2164,-0.2196,-0.2192,-0.2147,-0.2207,-0.2199,-0.2166,-0.2256,-0.2126,-0.21,-0.1823,-0.172,-0.1652,-0.1799,-0.1717,-0.1733,-0.1753,-0.1723,-0.1691,-0.1496,-0.1498,-0.15,-0.1502,-0.1503,0,-0.2022,-0.2018,-0.2022,-0.2007,-0.1957,-0.2034,-0.2037,-0.1957,-0.1872,-0.1901,-0.1844,-0.163,-0.149,-0.1477,-0.13,-0.1264,-0.1273,-0.1216,-0.1228,-0.1269,-0.1306,-0.1256,-0.0903,-0.0901,-0.0899,-0.0898,0,0,-0.1958,-0.1902,-0.1892,-0.175,-0.1734,-0.1612,-0.1567,-0.15,-0.1472,-0.1363,-0.1299,-0.1378,-0.1409,-0.1145,-0.1092,-0.0964,-0.1107,-0.0916,-0.1396,-0.145,-0.1484,-0.159,-0.1558,0,0,0,0,0]},{"header":{"parameterUnit":"m.s-1","parameterCategory":2,"la1":30.2991,"la2":30.254,"lo1":-89.0895,"lo2":-89.0444,"dy":0.0017,"dx":0.0017,"nx":28,"ny":28,"refTime":"2026-01-29T03:00:00:Z","depth":"2","parameterNumber":3,"parameterNumberName":"V-component_of_CURRENTS"},"data":[0,0,0,0,0,0,0,0,0,0,0,0,0,0,0,0,0,0,0,0,0,0,0,0,0,0,0,0,0,0,0,0,0,0,0,0,0,0,0,0,0,0,0,0,0,0,0,0,0,0,0,0,0,0,0,0,0,0,-0.0381,-0.038,0,-0.0317,-0.0316,-0.0315,-0.0266,-0.0265,-0.0265,-0.0265,-0.015,-0.0147,-0.0144,0,0,0,0,0,0,0,0,0,0,0,0,0,-0.0414,-0.0414,-0.0381,-0.038,-0.038,-0.0317,-0.0316,-0.0315,-0.0266,-0.0265,-0.0265,-0.0265,-0.015,-0.0147,-0.0144,0,0,0,0,0,0,0,0,0,0,0,0,0,-0.0379,-0.0414,-0.0381,-0.0348,-0.0345,-0.0317,-0.0316,-0.0315,-0.0266,-0.0265,-0.0265,-0.0264,-0.0152,-0.0148,-0.0143,-0.0128,0,0,-0.0131,-0.0129,0,0,0,0,0,0,0,0,-0.0381,-0.0378,-0.0354,-0.0351,-0.0347,-0.03,-0.0286,-0.025,-0.0266,-0.0294,-0.0265,-0.0264,-0.0196,-0.0189,-0.0176,-0.0123,-0.0118,-0.013,-0.0128,-0.0126,-0.0125,0,0,0,0,0,0,0,-0.0384,-0.038,-0.0354,-0.0353,-0.0349,-0.0322,-0.0316,-0.0279,-0.0247,-0.0292,-0.0288,-0.0284,-0.0194,-0.0181,-0.0173,-0.0116,-0.0131,-0.0127,-0.0124,-0.0123,-0.0026,-0.0026,0,0,0,0,0,0,-0.0398,-0.0383,-0.0356,-0.0352,-0.0365,-0.0322,-0.0316,-0.0314,-0.0248,-0.0239,-0.0284,-0.0282,-0.0188,-0.0178,-0.0169,-0.014,-0.0126,-0.0122,-0.012,-0.0026,-0.0026,-0.0026,0,0,0,0,0,0,-0.0399,-0.0396,-0.0359,-0.0367,-0.036,-0.0322,-0.0321,-0.0313,-0.03,-0.0244,-0.0232,-0.0279,-0.0187,-0.0175,-0.0137,-0.0136,-0.0121,-0.0117,-0.0026,-0.0026,-0.0026,-0.0087,0,0,0,0,0,0,-0.04,-0.0397,-0.0401,-0.0368,-0.036,-0.035,-0.0321,-0.0313,-0.0299,-0.0295,-0.0235,-0.0224,-0.0186,-0.0143,-0.0133,-0.013,-0.0114,-0.0026,-0.0026,-0.0026,-0.0086,-0.0089,-0.0093,0,0,0,0,0,-0.0401,-0.0413,-0.0402,-0.0399,-0.0368,-0.035,-0.0344,-0.0313,-0.0299,-0.0299,-0.0256,-0.0226,-0.0134,-0.014,-0.0128,-0.0124,-0.0026,-0.0026,-0.0026,-0.0084,-0.0089,-0.0093,0,0,0,0,0,0,-0.043,-0.0408,-0.0395,-0.04,-0.038,-0.0343,-0.034,-0.0319,-0.0286,-0.0281,-0.0225,-0.0211,-0.0179,-0.0143,-0.0151,-0.0094,-0.0075,-0.0072,-0.0123,-0.0127,-0.0131,-0.0142,-0.011,0,0,0,0,0,-0.044,-0.0442,-0.0415,-0.0418,-0.0411,-0.0377,-0.0366,-0.0347,-0.0313,-0.0298,-0.0256,-0.0209,-0.0168,-0.0143,-0.0104,-0.0073,-0.0031,-0.0061,-0.0065,-0.0069,-0.0069,-0.0007,-0.0005,-0.0025,-0.0025,-0.0025,0,0,-0.0451,-0.044,-0.044,-0.0424,-0.0405,-0.0403,-0.0368,-0.0359,-0.0351,-0.0291,-0.0267,-0.0224,-0.0164,-0.0131,-0.0113,-0.01,-0.0041,-0.0068,-0.0072,-0.007,-0.0006,-0.0004,-0.0002,-0.0025,-0.0025,-0.0025,0,0,-0.0481,-0.0466,-0.048,-0.0468,-0.045,-0.0426,-0.0428,-0.0394,-0.0373,-0.0347,-0.03,-0.0255,-0.0199,-0.0151,-0.012,-0.0119,-0.0066,-0.0109,-0.0129,-0.007,-0.0067,-0.0065,-0.0013,-0.0006,-0.0105,-0.0106,-0.0106,0,-0.0496,-0.0509,-0.0481,-0.0492,-0.0486,-0.0442,-0.0454,-0.0426,-0.0384,-0.0363,-0.0349,-0.0253,-0.0206,-0.015,-0.015,-0.0127,-0.0088,-0.0121,-0.0075,-0.0072,-0.0068,-0.0015,-0.0006,-0.0108,-0.0108,-0.0108,-0.0108,0,-0.0536,-0.0545,-0.0552,-0.055,-0.0538,-0.0542,-0.0504,-0.0486,-0.0455,-0.0419,-0.0364,-0.0297,-0.0237,-0.0215,-0.0182,-0.0132,-0.0112,-0.0092,-0.0068,-0.007,-0.0014,-0.0004,-0.0113,-0.0112,-0.0111,-0.011,0,0,-0.0573,-0.0581,-0.0583,-0.0594,-0.0571,-0.0568,-0.0551,-0.0519,-0.0503,-0.0449,-0.0416,-0.034,-0.0296,-0.0258,-0.0204,-0.0148,-0.0092,-0.0116,-0.0111,-0.0071,0.0036,0.0061,0.0076,-0.0067,-0.0065,-0.0064,0.0062,0,-0.0614,-0.0655,-0.0638,-0.0665,-0.0681,-0.0636,-0.0624,-0.0585,-0.0537,-0.0493,-0.0407,-0.0358,-0.0313,-0.0284,-0.0222,-0.0124,-0.0066,-0.0128,0.0038,0.0043,0.0061,0.0088,0.0056,0.0167,0.0073,0.0075,0.0076,0,-0.0659,-0.0681,-0.0723,-0.0727,-0.0728,-0.0731,-0.0699,-0.0681,-0.06,-0.056,-0.0487,-0.0418,-0.0324,-0.0292,-0.0123,-0.0166,-0.0074,0.0003,0.001,0.0064,0.0089,0.0156,0.019,0.0095,0.0093,0.0092,0.0091,0,-0.071,-0.0737,-0.0774,-0.0778,-0.0774,-0.0776,-0.0764,-0.0703,-0.0682,-0.0598,-0.0568,-0.0447,-0.0381,-0.0255,-0.0096,-0.0108,0.0092,0.0097,0.0209,0.0212,0.0234,0.0236,0.0215,0.0215,0.0215,0.0214,0.0214,0,-0.0764,-0.0792,-0.0805,-0.0828,-0.0863,-0.0832,-0.084,-0.0806,-0.0745,-0.0712,-0.0608,-0.0548,-0.0369,-0.0232,-0.0099,0.0094,0.0094,0.0216,0.0252,0.0211,0.0209,0.0184,0.0179,0.0219,0.0218,0.0217,0.0216,0,-0.0818,-0.0826,-0.0873,-0.0887,-0.0893,-0.0918,-0.0907,-0.0903,-0.0837,-0.079,-0.0766,-0.0609,-0.0426,-0.024,-0.0014,0.0094,0.0269,0.0336,0.0272,0.0299,0.0348,0.0338,0.047,0.0473,0.0474,0.0476,0.0477,0,-0.0851,-0.0883,-0.0928,-0.0961,-0.0973,-0.0998,-0.1012,-0.0961,-0.0946,-0.082,-0.0798,-0.0613,-0.0468,-0.0132,0.0095,0.034,0.0339,0.0443,0.0415,0.0355,0.0377,0.0364,0.0352,0.042,0.0421,0.0422,0.0422,0,-0.0911,-0.0926,-0.0965,-0.1042,-0.1076,-0.1109,-0.1116,-0.1115,-0.1035,-0.0972,-0.0842,-0.0713,-0.0377,-0.0104,0.021,0.0346,0.0397,0.0462,0.044,0.0352,0.0316,0.0335,0.0323,0.0427,0.0427,0.0426,0.0426,0.0426,-0.0946,-0.0994,-0.105,-0.1121,-0.1168,-0.1211,-0.1232,-0.1204,-0.1168,-0.1048,-0.0895,-0.0675,-0.0392,0.0052,0.0281,0.0486,0.0479,0.0523,0.0518,0.0513,0.0476,0.0444,0.0572,0.0573,0.0573,0.0573,0.0573,0,-0.0992,-0.105,-0.1125,-0.1213,-0.1285,-0.1282,-0.1295,-0.1279,-0.1233,-0.1074,-0.0919,-0.058,-0.0262,0.0032,0.0361,0.0555,0.0534,0.0584,0.0515,0.0509,0.0504,0.0464,0.0559,0.056,0.056,0.0561,0,0,-0.1018,-0.1105,-0.1154,-0.1296,-0.1357,-0.1406,-0.1409,-0.1348,-0.1234,-0.1065,-0.0881,-0.064,-0.0264,-0.0036,0.0221,0.0397,0.0395,0.0411,0.0401,0.0283,0.0275,0.045,0.038,0,0,0,0,0]}],[{"header":{"parameterUnit":"m.s-1","parameterCategory":2,"la1":30.2991,"la2":30.254,"lo1":-89.0895,"lo2":-89.0444,"dy":0.0017,"dx":0.0017,"nx":28,"ny":28,"refTime":"2026-01-29T03:00:00:Z","depth":"4","parameterNumber":2,"parameterNumberName":"U-component_of_CURRENTS"},"data":[0,0,0,0,0,0,0,0,0,0,0,0,0,0,0,0,0,0,0,0,0,0,0,0,0,0,0,0,0,0,0,0,0,0,0,0,0,0,0,0,0,0,0,0,0,0,0,0,0,0,0,0,0,0,0,0,0,0,-0.1756,-0.1756,0,-0.1813,-0.1813,-0.1814,-0.1853,-0.1853,-0.1854,-0.1854,-0.1911,-0.1912,-0.1913,0,0,0,0,0,0,0,0,0,0,0,0,0,-0.1674,-0.1675,-0.1756,-0.1756,-0.1757,-0.1813,-0.1813,-0.1814,-0.1853,-0.1853,-0.1854,-0.1854,-0.1911,-0.1912,-0.1913,0,0,0,0,0,0,0,0,0,0,0,0,0,-0.1717,-0.1676,-0.1755,-0.1785,-0.1788,-0.1812,-0.1813,-0.1814,-0.1853,-0.1853,-0.1854,-0.1855,-0.191,-0.1912,-0.1914,-0.1911,0,0,-0.1919,-0.1919,0,0,0,0,0,0,0,0,-0.1714,-0.1719,-0.1779,-0.1783,-0.1786,-0.1828,-0.1806,-0.1847,-0.1853,-0.1826,-0.1854,-0.1855,-0.1884,-0.1888,-0.1895,-0.1913,-0.1916,-0.1919,-0.192,-0.192,-0.1921,0,0,0,0,0,0,0,-0.1711,-0.1717,-0.1777,-0.178,-0.1785,-0.1793,-0.1799,-0.1813,-0.1849,-0.1829,-0.1832,-0.1841,-0.1886,-0.1893,-0.1896,-0.1917,-0.1919,-0.192,-0.1921,-0.1922,-0.2011,-0.2012,0,0,0,0,0,0,-0.1707,-0.1714,-0.1775,-0.1778,-0.1753,-0.1794,-0.1801,-0.1812,-0.1849,-0.1856,-0.184,-0.1842,-0.189,-0.1894,-0.1898,-0.1969,-0.192,-0.1922,-0.1923,-0.201,-0.2011,-0.2013,0,0,0,0,0,0,-0.1705,-0.1712,-0.1772,-0.1749,-0.1757,-0.1795,-0.1807,-0.1813,-0.1852,-0.1858,-0.1865,-0.1876,-0.189,-0.1896,-0.1939,-0.1969,-0.1923,-0.1924,-0.2008,-0.201,-0.2012,-0.2064,0,0,0,0,0,0,-0.1703,-0.1711,-0.1732,-0.1749,-0.1759,-0.1808,-0.1807,-0.1814,-0.1855,-0.186,-0.1891,-0.1895,-0.1891,-0.1937,-0.1941,-0.197,-0.1926,-0.2006,-0.2009,-0.2011,-0.2061,-0.2068,-0.2074,0,0,0,0,0,-0.1699,-0.1722,-0.1733,-0.1741,-0.1782,-0.1809,-0.1816,-0.1843,-0.1857,-0.1879,-0.1902,-0.1896,-0.1956,-0.194,-0.1944,-0.1974,-0.2005,-0.2008,-0.2011,-0.2058,-0.2066,-0.2074,0,0,0,0,0,0,-0.1699,-0.1728,-0.1741,-0.1772,-0.1799,-0.1817,-0.1845,-0.1861,-0.1897,-0.1911,-0.1914,-0.192,-0.1968,-0.1966,-0.1947,-0.2008,-0.1979,-0.1983,-0.2013,-0.2021,-0.2027,-0.2023,-0.1927,0,0,0,0,0,-0.1708,-0.1734,-0.1759,-0.1788,-0.1804,-0.1831,-0.1852,-0.1871,-0.1897,-0.1915,-0.1938,-0.196,-0.1979,-0.1997,-0.2013,-0.2047,-0.2025,-0.207,-0.2076,-0.2082,-0.2081,-0.2076,-0.2082,-0.2023,-0.2023,-0.2023,0,0,-0.1717,-0.1736,-0.1753,-0.179,-0.1814,-0.1844,-0.1846,-0.1888,-0.1919,-0.1915,-0.1974,-0.1988,-0.1994,-0.2033,-0.2054,-0.2038,-0.2087,-0.2086,-0.209,-0.2087,-0.208,-0.2086,-0.2091,-0.2025,-0.2025,-0.2024,0,0,-0.1736,-0.1766,-0.1791,-0.1817,-0.186,-0.1875,-0.1895,-0.1934,-0.1962,-0.2011,-0.2015,-0.2046,-0.2085,-0.209,-0.2096,-0.2149,-0.2122,-0.2162,-0.2192,-0.2188,-0.2192,-0.2196,-0.217,-0.2171,-0.2165,-0.2165,-0.2165,0,-0.1749,-0.1779,-0.1804,-0.1834,-0.186,-0.1894,-0.1926,-0.1957,-0.2008,-0.2029,-0.2041,-0.2096,-0.2108,-0.2137,-0.2159,-0.2163,-0.2149,-0.2161,-0.2195,-0.2198,-0.2201,-0.2173,-0.2173,-0.2168,-0.2167,-0.2167,-0.2167,0,-0.1773,-0.1812,-0.1832,-0.1878,-0.191,-0.1946,-0.1986,-0.203,-0.2068,-0.2091,-0.2145,-0.2161,-0.2188,-0.2202,-0.22,-0.2231,-0.221,-0.2203,-0.2172,-0.221,-0.2178,-0.2178,-0.2172,-0.2171,-0.217,-0.2169,0,0,-0.176,-0.1834,-0.1845,-0.1874,-0.1938,-0.1962,-0.2022,-0.2071,-0.2107,-0.216,-0.2197,-0.2239,-0.2249,-0.2256,-0.226,-0.2263,-0.2274,-0.225,-0.2248,-0.2217,-0.2252,-0.2101,-0.2085,-0.2276,-0.2276,-0.2277,-0.2219,0,-0.1773,-0.1829,-0.1867,-0.1928,-0.1958,-0.2011,-0.2058,-0.2111,-0.2155,-0.2202,-0.2226,-0.2265,-0.2269,-0.2288,-0.2295,-0.2282,-0.2276,-0.2289,-0.2225,-0.2223,-0.2078,-0.2081,-0.2278,-0.2219,-0.2218,-0.2218,-0.2218,0,-0.1773,-0.1813,-0.1873,-0.1948,-0.1968,-0.2015,-0.2089,-0.2137,-0.2203,-0.2236,-0.2277,-0.2296,-0.2322,-0.2317,-0.2308,-0.2319,-0.2292,-0.2274,-0.2271,-0.2109,-0.207,-0.2175,-0.2216,-0.2216,-0.2216,-0.2217,-0.2217,0,-0.1727,-0.1814,-0.1862,-0.1889,-0.198,-0.2024,-0.2077,-0.215,-0.2186,-0.2259,-0.2283,-0.232,-0.2332,-0.2323,-0.2295,-0.2308,-0.2261,-0.2269,-0.2101,-0.209,-0.2222,-0.2219,-0.2249,-0.2249,-0.2249,-0.2249,-0.2249,0,-0.17,-0.1743,-0.1852,-0.1875,-0.1935,-0.2011,-0.2074,-0.2131,-0.2202,-0.2221,-0.2297,-0.2293,-0.2337,-0.2316,-0.2294,-0.2178,-0.2255,-0.2093,-0.2062,-0.2245,-0.2245,-0.222,-0.2218,-0.2247,-0.2247,-0.2248,-0.2248,0,-0.1629,-0.1705,-0.1765,-0.1876,-0.1914,-0.1958,-0.2062,-0.2089,-0.2179,-0.2203,-0.2225,-0.2276,-0.224,-0.2248,-0.2215,-0.2144,-0.2072,-0.2011,-0.2189,-0.2171,-0.1907,-0.1908,-0.1818,-0.1812,-0.1807,-0.1803,-0.18,0,-0.1591,-0.1618,-0.1747,-0.1779,-0.1835,-0.1914,-0.195,-0.206,-0.2078,-0.2156,-0.2138,-0.2152,-0.2162,-0.1978,-0.2022,-0.1947,-0.1928,-0.1879,-0.191,-0.1882,-0.1862,-0.1871,-0.1879,-0.1792,-0.179,-0.1789,-0.1788,0,-0.151,-0.1576,-0.1622,-0.1687,-0.1742,-0.1789,-0.1854,-0.1852,-0.1948,-0.2055,-0.1978,-0.1941,-0.1891,-0.1855,-0.1804,-0.176,-0.191,-0.1827,-0.1838,-0.1867,-0.1849,-0.1836,-0.1849,-0.177,-0.1773,-0.1774,-0.1775,0,-0.1449,-0.1459,-0.1524,-0.1559,-0.1625,-0.1619,-0.1683,-0.1682,-0.1712,-0.1809,-0.1772,-0.1789,-0.1851,-0.1754,-0.1709,-0.1651,-0.1635,-0.1586,-0.1609,-0.1629,-0.1595,-0.1548,-0.1333,0,0,0,0,0,-0.1372,-0.1354,-0.1381,-0.14,-0.1456,-0.1483,-0.1583,-0.1646,-0.1747,-0.1638,-0.1699,-0.1641,-0.1566,-0.1584,-0.1482,-0.1637,-0.1652,-0.1514,-0.1612,-0.1674,-0.1694,-0.1674,0,0,0,0,0,0,-0.1315,-0.1338,-0.1327,-0.1246,-0.1223,-0.1255,-0.1309,-0.139,-0.1346,-0.1461,-0.1426,-0.152,-0.1474,-0.1573,-0.1432,-0.144,-0.1464,-0.1547,-0.1542,-0.1663,-0.1681,-0.1697,-0.1683,0,0,0,0,0]},{"header":{"parameterUnit":"m.s-1","parameterCategory":2,"la1":30.2991,"la2":30.254,"lo1":-89.0895,"lo2":-89.0444,"dy":0.0017,"dx":0.0017,"nx":28,"ny":28,"refTime":"2026-01-29T03:00:00:Z","depth":"4","parameterNumber":3,"parameterNumberName":"V-component_of_CURRENTS"},"data":[0,0,0,0,0,0,0,0,0,0,0,0,0,0,0,0,0,0,0,0,0,0,0,0,0,0,0,0,0,0,0,0,0,0,0,0,0,0,0,0,0,0,0,0,0,0,0,0,0,0,0,0,0,0,0,0,0,0,-0.0288,-0.0288,0,-0.0249,-0.0249,-0.0248,-0.0221,-0.022,-0.022,-0.022,-0.0139,-0.0137,-0.0135,0,0,0,0,0,0,0,0,0,0,0,0,0,-0.0303,-0.0303,-0.0288,-0.0288,-0.0287,-0.0249,-0.0249,-0.0248,-0.0221,-0.022,-0.022,-0.022,-0.014,-0.0137,-0.0135,0,0,0,0,0,0,0,0,0,0,0,0,0,-0.0282,-0.0303,-0.0288,-0.027,-0.0268,-0.0249,-0.0249,-0.0248,-0.0221,-0.022,-0.022,-0.022,-0.0141,-0.0138,-0.0135,-0.0119,0,0,-0.0125,-0.0124,0,0,0,0,0,0,0,0,-0.0284,-0.0282,-0.0273,-0.0271,-0.0269,-0.0241,-0.0224,-0.0203,-0.0221,-0.0237,-0.022,-0.022,-0.017,-0.0165,-0.0157,-0.0115,-0.0112,-0.0125,-0.0123,-0.0122,-0.0121,0,0,0,0,0,0,0,-0.0285,-0.0283,-0.0271,-0.0273,-0.027,-0.0252,-0.0249,-0.022,-0.0203,-0.0236,-0.0234,-0.0232,-0.0168,-0.016,-0.0154,-0.0111,-0.0125,-0.0122,-0.012,-0.0119,-0.0045,-0.0045,0,0,0,0,0,0,-0.0294,-0.0285,-0.0273,-0.027,-0.0277,-0.0252,-0.0248,-0.0249,-0.0205,-0.0198,-0.0232,-0.0231,-0.0165,-0.0158,-0.0151,-0.0132,-0.0122,-0.0119,-0.0117,-0.0045,-0.0045,-0.0045,0,0,0,0,0,0,-0.0295,-0.0294,-0.0274,-0.0277,-0.0274,-0.0252,-0.0253,-0.0248,-0.0244,-0.0202,-0.0195,-0.0232,-0.0165,-0.0156,-0.013,-0.0129,-0.0117,-0.0115,-0.0045,-0.0045,-0.0045,-0.0092,0,0,0,0,0,0,-0.0296,-0.0294,-0.0301,-0.0278,-0.0274,-0.0271,-0.0253,-0.0248,-0.0243,-0.0241,-0.02,-0.0192,-0.0164,-0.0135,-0.0127,-0.0124,-0.0112,-0.0046,-0.0045,-0.0045,-0.0091,-0.0093,-0.0096,0,0,0,0,0,-0.0296,-0.0307,-0.0302,-0.03,-0.0283,-0.0271,-0.0267,-0.025,-0.0243,-0.0245,-0.0216,-0.0194,-0.0128,-0.0133,-0.0123,-0.0119,-0.0046,-0.0045,-0.0045,-0.0089,-0.0093,-0.0096,0,0,0,0,0,0,-0.0317,-0.0304,-0.0298,-0.0304,-0.0292,-0.0267,-0.0269,-0.0256,-0.0235,-0.0234,-0.0193,-0.0184,-0.0161,-0.0134,-0.014,-0.0097,-0.0082,-0.008,-0.0119,-0.0122,-0.0124,-0.0133,-0.011,0,0,0,0,0,-0.0325,-0.033,-0.0312,-0.0318,-0.0315,-0.0293,-0.0288,-0.0277,-0.0254,-0.0246,-0.0217,-0.0183,-0.0152,-0.0133,-0.0105,-0.0081,-0.0049,-0.0071,-0.0074,-0.0077,-0.0077,-0.0026,-0.0024,-0.0044,-0.0044,-0.0044,0,0,-0.0335,-0.0329,-0.0332,-0.0323,-0.0313,-0.0313,-0.0289,-0.0286,-0.0283,-0.0239,-0.0226,-0.0194,-0.0149,-0.0124,-0.0111,-0.0101,-0.0055,-0.0076,-0.0079,-0.0077,-0.0025,-0.0023,-0.0022,-0.0044,-0.0044,-0.0044,0,0,-0.0357,-0.0352,-0.0364,-0.0357,-0.0348,-0.0333,-0.0335,-0.0314,-0.0302,-0.0286,-0.0251,-0.0218,-0.0178,-0.0139,-0.0115,-0.0114,-0.0074,-0.0106,-0.0121,-0.0072,-0.007,-0.0068,-0.0031,-0.0025,-0.0103,-0.0103,-0.0103,0,-0.037,-0.0382,-0.0365,-0.0374,-0.0373,-0.0346,-0.0356,-0.0338,-0.0311,-0.0298,-0.029,-0.0218,-0.0182,-0.0137,-0.0137,-0.0119,-0.0091,-0.0115,-0.0076,-0.0073,-0.007,-0.0033,-0.0025,-0.0105,-0.0105,-0.0105,-0.0105,0,-0.0397,-0.0409,-0.0415,-0.0417,-0.0412,-0.0418,-0.0393,-0.0385,-0.0367,-0.0342,-0.0303,-0.0251,-0.0206,-0.0188,-0.0162,-0.012,-0.0107,-0.009,-0.0071,-0.0071,-0.0031,-0.0023,-0.0109,-0.0108,-0.0107,-0.0107,0,0,-0.0422,-0.0434,-0.0438,-0.045,-0.0438,-0.0439,-0.0431,-0.0412,-0.0405,-0.0366,-0.0345,-0.0284,-0.0251,-0.0221,-0.0177,-0.0131,-0.0087,-0.0106,-0.0103,-0.0075,0.0013,-0.0003,0.0004,-0.0064,-0.0063,-0.0062,0.0029,0,-0.045,-0.0484,-0.0475,-0.0502,-0.0517,-0.0491,-0.0487,-0.0463,-0.0434,-0.0406,-0.0337,-0.0303,-0.0264,-0.0243,-0.019,-0.0113,-0.0066,-0.0113,0.0014,0.0018,-0.0001,0.0013,-0.0058,0.0036,0.0038,0.0039,0.004,0,-0.0479,-0.0499,-0.0537,-0.0552,-0.0555,-0.0565,-0.0554,-0.0544,-0.049,-0.0464,-0.0408,-0.0355,-0.0278,-0.025,-0.0113,-0.0147,-0.0073,-0.0012,-0.0007,0.0,0.0017,0.004,0.0056,0.0055,0.0053,0.0052,0.0051,0,-0.0511,-0.054,-0.0576,-0.0582,-0.0591,-0.0602,-0.0602,-0.0566,-0.0558,-0.0499,-0.0482,-0.0383,-0.0334,-0.0227,-0.0103,-0.0106,0.0044,0.0058,0.0116,0.0116,0.0123,0.012,0.0155,0.0155,0.0155,0.0155,0.0155,0,-0.0541,-0.0571,-0.06,-0.0621,-0.0663,-0.0648,-0.0671,-0.0652,-0.0616,-0.0602,-0.0518,-0.0478,-0.0326,-0.0222,-0.011,0.0025,0.0043,0.0116,0.0141,0.0101,0.0094,0.0129,0.0125,0.0158,0.0158,0.0157,0.0156,0,-0.057,-0.0588,-0.0636,-0.0668,-0.0683,-0.0713,-0.0732,-0.0738,-0.0699,-0.0676,-0.0659,-0.054,-0.0404,-0.0253,-0.0071,0.0008,0.0142,0.0186,0.0124,0.0143,0.0182,0.0175,0.0259,0.0259,0.026,0.026,0.026,0,-0.0586,-0.0615,-0.0682,-0.0721,-0.0744,-0.0785,-0.081,-0.0787,-0.0785,-0.0711,-0.0697,-0.0567,-0.0473,-0.0228,-0.0074,0.0136,0.0164,0.0223,0.0211,0.0179,0.0195,0.0187,0.0179,0.026,0.026,0.026,0.026,0,-0.0617,-0.0647,-0.0689,-0.0776,-0.0826,-0.0872,-0.09,-0.0898,-0.0856,-0.0822,-0.0714,-0.0577,-0.0422,-0.0229,-0.0068,0.0082,0.0178,0.0226,0.0227,0.0216,0.0181,0.0195,0.0187,0.0261,0.0261,0.0261,0.0261,0,-0.0641,-0.0684,-0.075,-0.0822,-0.0894,-0.0941,-0.0946,-0.0924,-0.0906,-0.0806,-0.077,-0.059,-0.0476,-0.0257,-0.0107,0.0036,0.0072,0.0108,0.0116,0.0117,0.0045,-0.0022,0.002,0,0,0,0,0,-0.0658,-0.0713,-0.079,-0.0874,-0.0947,-0.0983,-0.1,-0.0985,-0.0936,-0.0866,-0.0811,-0.0659,-0.0417,-0.0307,-0.0165,-0.0118,0.008,0.005,0.012,0.0265,0.0264,0.0202,0,0,0,0,0,0,-0.0673,-0.0748,-0.0793,-0.0904,-0.0966,-0.1037,-0.1045,-0.1008,-0.0952,-0.0879,-0.0744,-0.0649,-0.0411,-0.0503,-0.0172,-0.0127,-0.0068,0.0173,0.0176,0.0265,0.0265,0.0264,0.0199,0,0,0,0,0]}]]